TimeEDT,TemperatureF,Dew PointF,Humidity,Sea Level PressureIn,VisibilityMPH,Wind Direction,Wind SpeedMPH,Gust SpeedMPH,PrecipitationIn,Events,Conditions,WindDirDegrees,DateUTC
3:15 AM,77.0,77.0,100,30.07,10.0,WSW,5.8,-,N/A,,Clear,240,2013-08-12 07:15:00
3:35 AM,77.0,77.0,100,30.07,10.0,WSW,4.6,-,N/A,,Clear,240,2013-08-12 07:35:00
3:55 AM,77.0,77.0,100,30.08,10.0,WSW,4.6,-,N/A,,Clear,240,2013-08-12 07:55:00
4:15 AM,77.0,77.0,100,30.08,10.0,WSW,4.6,-,N/A,,Clear,240,2013-08-12 08:15:00
4:35 AM,77.0,77.0,100,30.08,10.0,WSW,3.5,-,N/A,,Clear,250,2013-08-12 08:35:00
4:55 AM,77.0,77.0,100,30.08,10.0,West,4.6,-,N/A,,Scattered Clouds,260,2013-08-12 08:55:00
5:15 AM,77.0,77.0,100,30.08,10.0,West,4.6,-,N/A,,Mostly Cloudy,260,2013-08-12 09:15:00
5:35 AM,77.0,77.0,100,30.08,10.0,WSW,4.6,-,N/A,,Mostly Cloudy,240,2013-08-12 09:35:00
5:55 AM,77.0,77.0,100,30.08,10.0,WSW,5.8,-,N/A,,Mostly Cloudy,240,2013-08-12 09:55:00
6:15 AM,77.0,77.0,100,30.08,10.0,WSW,4.6,-,N/A,,Clear,240,2013-08-12 10:15:00
6:35 AM,77.0,77.0,100,30.08,10.0,WSW,5.8,-,N/A,,Clear,250,2013-08-12 10:35:00
6:55 AM,77.0,77.0,100,30.08,10.0,WSW,5.8,-,N/A,,Clear,240,2013-08-12 10:55:00
7:15 AM,77.0,77.0,100,30.08,10.0,WSW,4.6,-,N/A,,Clear,240,2013-08-12 11:15:00
7:35 AM,77.0,77.0,100,30.08,10.0,WSW,6.9,-,N/A,,Clear,250,2013-08-12 11:35:00
7:55 AM,78.8,78.8,100,30.08,10.0,WSW,8.1,-,N/A,,Clear,240,2013-08-12 11:55:00
8:15 AM,78.8,78.8,100,30.08,10.0,WSW,6.9,-,N/A,,Clear,250,2013-08-12 12:15:00
8:35 AM,80.6,78.8,94,30.08,10.0,West,5.8,-,N/A,,Clear,270,2013-08-12 12:35:00
8:55 AM,80.6,78.8,94,30.08,10.0,WSW,9.2,-,N/A,,Clear,240,2013-08-12 12:55:00
9:15 AM,82.4,77.0,84,30.08,10.0,WSW,6.9,-,N/A,,Clear,250,2013-08-12 13:15:00
9:35 AM,84.2,77.0,79,30.08,10.0,WSW,5.8,-,N/A,,Clear,240,2013-08-12 13:35:00
9:55 AM,86.0,77.0,74,30.08,10.0,West,9.2,-,N/A,,Clear,280,2013-08-12 13:55:00
10:15 AM,86.0,77.0,74,30.07,10.0,West,8.1,-,N/A,,Clear,260,2013-08-12 14:15:00
10:35 AM,87.8,77.0,70,30.08,10.0,West,8.1,-,N/A,,Clear,280,2013-08-12 14:35:00
10:55 AM,89.6,77.0,66,30.07,10.0,WSW,9.2,-,N/A,,Clear,250,2013-08-12 14:55:00
11:15 AM,89.6,77.0,66,30.07,10.0,West,6.9,-,N/A,,Clear,270,2013-08-12 15:15:00
11:35 AM,89.6,77.0,66,30.06,10.0,WSW,10.4,16.1,N/A,,Clear,250,2013-08-12 15:35:00
11:55 AM,89.6,77.0,66,30.06,10.0,West,5.8,9.2,N/A,,Scattered Clouds,280,2013-08-12 15:55:00
12:15 PM,89.6,77.0,66,30.05,10.0,WSW,6.9,-,N/A,,Scattered Clouds,250,2013-08-12 16:15:00
12:35 PM,91.4,77.0,63,30.05,10.0,West,8.1,-,N/A,,Scattered Clouds,260,2013-08-12 16:35:00
12:55 PM,91.4,73.4,55,30.04,10.0,WSW,8.1,16.1,N/A,,Scattered Clouds,240,2013-08-12 16:55:00
1:15 PM,91.4,73.4,55,30.04,10.0,West,8.1,-,N/A,,Scattered Clouds,270,2013-08-12 17:15:00
1:35 PM,91.4,73.4,55,30.04,10.0,West,10.4,-,N/A,,Scattered Clouds,270,2013-08-12 17:35:00
1:55 PM,93.2,75.2,56,30.03,10.0,WSW,11.5,-,N/A,,Clear,240,2013-08-12 17:55:00
2:15 PM,93.2,73.4,52,30.02,10.0,West,6.9,-,N/A,,Clear,280,2013-08-12 18:15:00
2:35 PM,93.2,73.4,52,30.02,10.0,West,6.9,-,N/A,,Clear,280,2013-08-12 18:35:00
2:55 PM,93.2,75.2,56,30.01,10.0,WNW,9.2,-,N/A,,Clear,290,2013-08-12 18:55:00
3:15 PM,95.0,73.4,49,30.01,10.0,WNW,4.6,-,N/A,,Clear,300,2013-08-12 19:15:00
3:35 PM,95.0,75.2,53,30.00,10.0,West,9.2,-,N/A,,Clear,280,2013-08-12 19:35:00
3:55 PM,95.0,73.4,49,29.99,10.0,West,8.1,-,N/A,,Scattered Clouds,260,2013-08-12 19:55:00
4:15 PM,95.0,73.4,49,29.99,10.0,West,4.6,-,N/A,,Scattered Clouds,260,2013-08-12 20:15:00
4:35 PM,95.0,73.4,49,29.99,10.0,WSW,10.4,-,N/A,,Scattered Clouds,250,2013-08-12 20:35:00
4:55 PM,95.0,73.4,49,29.98,10.0,WSW,8.1,-,N/A,,Scattered Clouds,240,2013-08-12 20:55:00
5:15 PM,91.4,77.0,63,29.98,10.0,SW,6.9,-,N/A,,Scattered Clouds,220,2013-08-12 21:15:00
5:35 PM,89.6,77.0,66,29.98,10.0,SSW,8.1,-,N/A,,Scattered Clouds,210,2013-08-12 21:35:00
5:55 PM,91.4,77.0,63,29.98,10.0,SSW,6.9,-,N/A,,Clear,200,2013-08-12 21:55:00
6:15 PM,89.6,77.0,66,29.98,10.0,SSW,11.5,-,N/A,,Clear,200,2013-08-12 22:15:00
6:35 PM,89.6,77.0,66,29.98,10.0,SSW,8.1,-,N/A,,Clear,210,2013-08-12 22:35:00
6:55 PM,87.8,77.0,70,29.98,10.0,SSW,5.8,-,N/A,,Clear,210,2013-08-12 22:55:00
7:15 PM,86.0,77.0,74,29.99,10.0,SSW,5.8,-,N/A,,Clear,200,2013-08-12 23:15:00
7:35 PM,86.0,77.0,74,29.98,10.0,SSW,6.9,-,N/A,,Clear,200,2013-08-12 23:35:00
7:55 PM,82.4,77.0,84,29.98,10.0,SSW,8.1,-,N/A,,Clear,200,2013-08-12 23:55:00
8:15 PM,82.4,77.0,84,29.99,10.0,SSW,6.9,-,N/A,,Clear,200,2013-08-13 00:15:00
8:35 PM,82.4,78.8,89,29.99,10.0,South,6.9,-,N/A,,Clear,190,2013-08-13 00:35:00
8:55 PM,80.6,78.8,94,30.00,10.0,SSW,5.8,-,N/A,,Clear,200,2013-08-13 00:55:00
9:15 PM,80.6,78.8,94,30.00,10.0,SSW,5.8,-,N/A,,Clear,200,2013-08-13 01:15:00
9:35 PM,80.6,80.6,100,30.01,10.0,South,8.1,-,N/A,,Clear,190,2013-08-13 01:35:00
9:55 PM,80.6,80.6,100,30.01,10.0,SSW,5.8,-,N/A,,Clear,200,2013-08-13 01:55:00
10:15 PM,80.6,80.6,100,30.01,10.0,SSW,6.9,-,N/A,,Clear,200,2013-08-13 02:15:00
10:35 PM,80.6,80.6,100,30.01,10.0,SSW,8.1,-,N/A,,Clear,200,2013-08-13 02:35:00
10:55 PM,80.6,80.6,100,30.01,10.0,SSW,6.9,-,N/A,,Clear,210,2013-08-13 02:55:00
11:15 PM,80.6,80.6,100,30.00,10.0,SSW,5.8,-,N/A,,Clear,200,2013-08-13 03:15:00
11:35 PM,80.6,80.6,100,29.99,10.0,SSW,6.9,-,N/A,,Clear,200,2013-08-13 03:35:00
11:55 PM,80.6,80.6,100,29.99,10.0,SSW,4.6,-,N/A,,Clear,210,2013-08-13 03:55:00